EW7556 Weather Reports


time (UTC)temp
C
wind
direction
speed
KPH
gust
KPH
rain 1hr
cm
rain 24hr
cm
rain mn
cm
humidity
%
barometer
mb
20260504150104 19 200 0.0 3.2 0.00 0.00 0.00 50 1010.5
20260504120124 6 200 0.0 3.2 0.00 0.00 0.00 88 1009.8
20260504081543 15 172 3.2 6.4 0.00 0.00 0.00 56 1009.1
20260504060112 10 197 0.0 0.0 0.00 0.00 0.00 82 1009.8
20260504050110 13 197 0.0 3.2 0.00 0.00 0.00 74 1009.8
20260504044555 13 197 0.0 3.2 0.00 0.00 0.00 70 1009.8
20260504043114 15 242 0.0 3.2 0.00 0.00 0.00 63 1009.7
20260504041602 15 242 0.0 1.6 0.00 0.00 0.00 65 1009.6
20260504040114 16 242 0.0 3.2 0.00 0.00 0.00 67 1009.5
20260504034558 17 242 0.0 0.0 0.00 0.00 0.00 62 1009.4
20260504033125 18 242 0.0 1.6 0.00 0.00 0.00 58 1009.3
20260504031506 20 242 0.0 0.0 0.00 0.00 0.00 53 1009.3
20260504030119 21 242 0.0 1.6 0.00 0.00 0.00 48 1009.3
20260504024557 23 242 0.0 1.6 0.00 0.00 0.00 41 1009.4
20260504023100 25 242 0.0 1.6 0.00 0.00 0.00 35 1009.5
20260504021603 25 242 0.0 4.8 0.00 0.00 0.00 32 1009.7
20260504020108 26 242 0.0 6.4 0.00 0.00 0.00 31 1009.8
20260504014547 25 199 0.0 3.2 0.00 0.00 0.00 31 1010.0
20260504013054 25 215 0.0 4.8 0.00 0.00 0.00 33 1010.1
20260504011556 25 185 1.6 6.4 0.00 0.00 0.00 33 1010.3
20260504010100 25 203 0.0 6.4 0.00 0.00 0.00 30 1010.5
20260504004545 26 333 0.0 6.4 0.00 0.00 0.00 30 1010.7
20260504003045 26 210 0.0 4.8 0.00 0.00 0.00 31 1010.7
20260504001557 26 238 0.0 8.0 0.00 0.00 0.00 32 1010.9
20260504000059 25 218 3.2 8.0 0.00 0.00 0.00 30 1011.0
20260503234546 26 233 1.6 6.4 0.00 0.00 0.00 31 1011.1
20260503233052 26 217 1.6 6.4 0.00 0.00 0.00 35 1011.3
20260503231553 25 231 0.0 6.4 0.00 0.00 0.00 34 1011.4
20260503230111 25 245 1.6 8.0 0.00 0.00 0.00 34 1011.6
20260503224544 25 238 3.2 9.7 0.00 0.00 0.00 40 1011.8
20260503223101 25 229 0.0 6.4 0.00 0.00 0.00 39 1012.1
20260503221553 25 333 0.0 4.8 0.00 0.00 0.00 44 1012.3
20260503220056 24 285 0.0 4.8 0.00 0.00 0.00 42 1012.5
20260503214552 23 300 1.6 6.4 0.00 0.00 0.00 43 1012.8
20260503213043 23 309 4.8 9.7 0.00 0.00 0.00 44 1013.0
20260503211543 23 347 3.2 9.7 0.00 0.00 0.00 42 1013.1
20260503210046 23 14 3.2 11.3 0.00 0.00 0.00 41 1013.2
20260503204531 23 287 4.8 9.7 0.00 0.00 0.00 42 1013.2
20260503203032 24 16 3.2 9.7 0.00 0.00 0.00 42 1013.2
20260503201538 24 259 4.8 9.7 0.00 0.00 0.00 45 1013.2
20260503200040 23 234 1.6 6.4 0.00 0.00 0.00 45 1013.4
20260503194524 23 236 3.2 8.0 0.00 0.00 0.00 47 1013.6
20260503193024 23 255 3.2 9.7 0.00 0.00 0.00 44 1013.9
20260503191527 23 262 0.0 4.8 0.00 0.00 0.00 44 1014.0
20260503190013 23 233 0.0 4.8 0.00 0.00 0.00 46 1014.1
20260503184512 22 252 0.0 6.4 0.00 0.00 0.00 50 1014.3
20260503183011 22 229 0.0 9.7 0.00 0.00 0.00 50 1014.5
20260503181534 22 229 3.2 8.0 0.00 0.00 0.00 52 1014.6
20260503180003 22 227 0.0 4.8 0.00 0.00 0.00 50 1014.8
20260503174504 21 239 0.0 4.8 0.00 0.00 0.00 49 1015.0
20260503173007 21 232 1.6 8.0 0.00 0.00 0.00 50 1015.1
20260503171521 21 241 3.2 9.7 0.00 0.00 0.00 53 1015.1
20260503170120 20 243 1.6 8.0 0.00 0.00 0.00 52 1015.1
20260503160113 20 193 0.0 6.4 0.00 0.00 0.00 55 1015.4